Other Public Products
Issued by NWS Grand Forks, ND

Home | Current Version | Previous Version | Text Only | Print | Product List | Glossary Off
Versions: 1 2 3 4 5 6 7 8 9 10 11 12 13 14 15 16 17 18 19 20 21 22 23 24 25 26 27 28 29 30 31 32 33 34 35 36 37 38 39 40 41 42 43 44 45 46 47 48 49 50

724
FPUS83 KFGF 280131
OPUFGF
PRAIRIE TO PINES WEATHER ROUNDUP
NATIONAL WEATHER SERVICE EASTERN NORTH DAKOTA/GRAND FORKS ND
800 PM CDT MON MAR 27 2017

 **SATELLITE DATA USED TO AUGMENT SKY COVER AT AUTOMATED STATIONS**
 *****  WEATHER ACROSS EASTERN NORTH DAKOTA  *****

CITY           SKY/WX    TMP DP  RH WIND       PRES   REMARKS
GRAND FORKS    FOG       39  39 100 NW6       30.03R VSB 1
GRAND FORKS AF CLOUDY    39  39 100 N7        30.04R
GRAND CITY NWS NOT AVBL
BUXTON         NOT AVBL
DEVILS LAKE    LGT RAIN  39  37  93 E16       30.02R VSB 3/4
FARGO          FAIR      50  43  77 N7        29.98R
WAHPETON ARPT  FAIR      48  36  61 CALM      29.99R
$$

 *****  WEATHER ACROSS CENTRAL AND WESTERN NORTH DAKOTA  *****

CITY           SKY/WX    TMP DP  RH WIND       PRES   REMARKS
JAMESTOWN      FAIR      47  37  68 E7        29.95R
BISMARCK       FAIR      56  32  40 E8        29.93R
MINOT          CLOUDY    36  35  96 VRB5      29.99S FOG
MINOT AFB      CLOUDY    34  34 100 W3        30.00R
GARRISON         N/A     42  37  82 N10       29.96R
WILLISTON      CLOUDY    53  32  44 NE9       29.94R
DICKINSON      CLOUDY    53  26  35 E9        29.87R
HETTINGER      FAIR      54  29  38 SE8       29.90R
$$

 *****  OTHER OBSERVATIONS NORTHEAST NORTH DAKOTA  *****

CITY           SKY/WX    TMP DP  RH WIND       PRES   REMARKS
WALHALLA       NOT AVBL
LANGDON        FOG       36  36 100 NE7       30.04R VSB<1/4
CAVALIER       CLOUDY    36  36 100 NW6       30.05R FOG
GRAFTON        FOG       36  36 100 NW8       30.07R VSB 1/2
CANDO          NOT AVBL
FORT TOTTEN      N/A     46  42  87 E7        29.95S
ROLLA          FOG       34  34 100 NE12      30.04R VSB 1/2
RUGBY          NOT AVBL
 ***** THE ABOVE OBSERVATIONS ARE NON NWS ARE NOT QUALITY
        CONTROLLED AND MAY MIS-REPORT RAIN FOR SNOW...
$$

 *****  OTHER OBSERVATIONS SOUTHEAST NORTH DAKOTA *****

CITY           SKY/WX    TMP DP  RH WIND       PRES   REMARKS
COOPERSTOWN    FAIR      39  39 100 E6        30.01R FOG
VALLEY CITY    FAIR      45  45 100 NE9       30.00S
OAKES          NOT AVBL
GWINNER        CLEAR     46  37  71 MISG      29.97R
SHEYENNE NWR     N/A     47  35  63 E6        29.95S
BUFFALO        NOT AVBL
WYNDMERE         N/A     46  39  76 NE3         N/A
 ***** THE ABOVE OBSERVATIONS ARE NON NWS ARE NOT QUALITY
       CONTROLLED AND MAY MIS-REPORT RAIN FOR SNOW...
$$

  *****  WEATHER ACROSS NORTHERN MINNESOTA  *****

CITY           SKY/WX    TMP DP  RH WIND       PRES   REMARKS
FLAG ISLAND    CLOUDY    43  30  61 CALM      30.03R
WARROAD        MOCLDY    39  34  81 N5        30.03S
ROSEAU         MOCLDY    41  36  81 NE5       30.03R
HALLOCK        FAIR      37  36  93 N5        30.03R
THF RVR FALLS  FAIR     N/A N/A N/A N9        30.01S
HALSTAD          N/A     41  39  95 N6          N/A
FOSSTON        FAIR      41  37  87 N8        29.99F
BAUDETTE       CLOUDY    44  31  60 N8        30.00R
WASKISH        FAIR      37  32  81 CALM      30.00R
CROOKSTON      FAIR      39  39 100 NE7       30.01R
$$
  *****  WEATHER ACROSS CENTRAL AND WEST MINNESOTA  *****

CITY           SKY/WX    TMP DP  RH WIND       PRES   REMARKS
BEMIDJI        FAIR      43  25  48 NE3       29.98S
PARK RAPIDS    FAIR      53  28  38 E6        29.96R
WADENA         MOCLDY    46  34  61 CALM      29.97R
DETROIT LAKES  FAIR      48  37  66 N5        29.99R
MOORHEAD       FAIR      48  45  87 N6        30.00R
FERGUS FALLS   FAIR      48  39  71 CALM      30.01R
ELBOW LAKE     FAIR      49  35  58 CALM      29.98S
MORRIS MN      FAIR      48  34  57 SE6       29.97S
STAPLES        FAIR      50  34  53 CALM      29.98R
WHEATON        FAIR      54  36  50 NE3       29.99R
$$
  *****  WEATHER ELSEWHERE ACROSS MINNESOTA  *****

CITY           SKY/WX    TMP DP  RH WIND       PRES   REMARKS
DULUTH         FAIR      41  32  70 SE3       29.99R
INTRNTL FALLS  FAIR      40  26  57 CALM      29.99R
ELY            FAIR      39  25  56 CALM      29.99R
CLOQUET        FAIR      43  30  61 E5        30.00R
BRAINERD       FAIR      45  31  58 CALM      29.97R
HIBBING        FAIR      37  24  59 CALM      29.98R
ALEXANDRIA     FAIR      52  34  50 S3        29.98R
SAINT CLOUD    FAIR      49  35  58 CALM      29.98R
MINNEAPOLIS    FAIR      50  37  61 VRB3      29.97R
$$

  *****  WEATHER ACROSS SOUTH DAKOTA  *****

CITY           SKY/WX    TMP DP  RH WIND       PRES   REMARKS
SIOUX FALLS    MOCLDY    52  39  61 SE12      29.95R
BROOKINGS      CLOUDY    53  37  54 E7        29.95R
WATERTOWN      CLOUDY    51  36  56 E6        29.96R
HURON          FAIR      54  36  50 E5        29.93R
SISSETON         N/A     50  38  63 S3        29.96R
ABERDEEN       MOCLDY    53  35  50 S5        29.95R
MITCHELL       FAIR      53  34  48 SE6       29.94R
PIERRE         FAIR      53  31  42 E7        29.89R
MOBRIDGE       FAIR      54  36  50 SE3       29.90R
RAPID CITY     FAIR      52  35  52 E10       29.86R
$$

  *****  SOME WEATHER IN NEARBY STATES *****

CITY           SKY/WX    TMP DP  RH WIND       PRES   REMARKS
GLASGOW MT     CLOUDY    53  34  48 E8        29.89R
GREAT FALLS MT CLOUDY    47  31  53 NW9       29.92R
CHEYENNE WY    CLOUDY    52  29  41 S17G23    29.82R
SCOTTSBLUFF NE CLOUDY    59  32  36 E3        29.80R
OMAHA NE       CLOUDY    51  40  65 CALM      29.97R
DES MOINES IA  CLOUDY    50  41  71 N3        29.96R
DAVENPORT IA   CLOUDY    49  45  86 NE7       29.95R
CHICAGO IL     CLOUDY    44  38  79 NE9       29.94R
EAU CLAIRE WI  CLOUDY    45  37  73 SE3       29.97R
LA CROSSE WI   CLOUDY    46  40  79 N6        29.97R
$$

  *****  SOME NATIONAL WEATHER *****

CITY           SKY/WX    TMP DP  RH WIND       PRES   REMARKS
LA GUARDIA NY  CLOUDY    48  43  82 NE5       30.01R
RALEIGH NC     MOCLDY    71  57  61 S8        29.98R
ATLANTA GA     MOCLDY    72  54  53 S6        29.94R
NEW ORLEANS LA MOCLDY    74  67  78 S8        29.95R
OKLAHOMA CITY  FAIR      63  45  51 NE6       29.88S
ALBUQUERQUE NM CLOUDY    64  30  27 SW17G25   29.82R
SALT LAKE CITY CLOUDY    45  41  86 N5        29.90R
LOS ANGELES CA FAIR      64  52  64 SW20      29.94F
BOISE ID       FAIR      52  31  44 NW13      30.08R
SEATTLE WA     PTSUNNY   48  45  89 SW10      30.19R
$$

*** WEATHER ACROSS MANITOBA...SASKATCHEWAN AND ONTARIO ***
                ***ONTARIO***

CITY           SKY/WX    TMP DP  RH WIND       PRES   REMARKS
GERALDTON      MOCLDY    41  18  38 NW2       29.98R
THUNDER BAY    PTCLDY    36  30  80 NE5       29.99
SIOUX LOOKOUT  MOCLDY    39  27  60 NW3       30.02R
TORONTO        CLOUDY    54  50  87 W5        29.89R
BIG TROUT LK   FLURRIES  21  12  68 N7        30.14R WCI  13
PICKLE LAKE    MOCLDY    34  21  60 NE6       30.03R
DRYDEN         CLOUDY    43  27  52 NE6       30.02R
KENORA         MOCLDY    45  30  57 N3        30.03R
$$
                *** MANITOBA***

CITY           SKY/WX    TMP DP  RH WIND       PRES   REMARKS
BRANDON        CLOUDY    36  30  80 NE15      30.06R
DAUPHIN        CLOUDY    34  28  80 NE5       30.13S
ISLAND LAKE    MOCLDY    25  14  63 N6        30.18S WCI  18
PILOT MOUND      N/A     34  30  86 NE8         N/A
THE PAS        PTCLDY    28  18  64 CALM      30.19R
THOMPSON       CLOUDY    21  14  73 NE9       30.26R WCI  11
WINNIPEG       MOCLDY    36  28  75 NE12      30.08R
LYNN LAKE      CLEAR     23  14  68 E6        30.22R WCI  16
CHURCHILL      CRYSTALS   1   0  92 NW8       30.36R WCI -12
GILLAM         PTCLDY    10   5  79 N10       30.27R WCI  -3
$$
                ***SASKATCHEWAN***

CITY           SKY/WX    TMP DP  RH WIND       PRES   REMARKS
ESTEVAN        FOG       34  34 100 E16G22    30.00R VSB 3/8 WCI  23
KINDERSLEY     MOCLDY    41  36  81 E14       29.92R
LLOYDMINSTER   CLOUDY    34  32  93 SE12      29.95S
PRINCE ALBERT  CLOUDY    34  25  69 SE8       30.07F
REGINA         CLOUDY    39  36  87 E12       30.00R
YORKTON        CLOUDY    34  32  93 E6        30.07R



USA.gov is the U.S. government's official web portal to all federal, state and local government web resources and services.